Orbital Elements at Epoch 2459200.5 (2020-Dec-17.0) TDB
Reference: JPL 30 (heliocentric ecliptic J2000)
Element | Value | Uncertainty (1-sigma) | Units |
e | .1628268012505736 | 3.2335e-08 | |
a | 2.315188692344408 | 1.0084e-08 | au |
q | 1.93821392327847 | 7.7239e-08 | au |
i | 8.279761132134961 | 4.194e-06 | deg |
node | 48.86575584723942 | 2.6782e-05 | deg |
peri | 231.1022404984721 | 3.0202e-05 | deg |
M | 334.5711788415876 | 1.4501e-05 | deg |
tp | 2459291.386994559864 (2021-Mar-17.88699456) | 5.203e-05 | TDB |
period | 1286.702117951968 3.52 | 8.4065e-06 2.302e-08 | d yr |
n | .279785037249343 | 1.8279e-09 | deg/d |
Q | 2.692163461410346 | 1.1726e-08 | au |
|
| | Orbit Determination Parameters
Additional Information
|